www.pogodaiklimat.ru

Погода и климат >> Архив погоды >> Израиль >> Беэр-Шева


ПОГОДА в Беэр-Шева

  • Прогноз погоды в Беэр-Шева
  • Монитор погоды в Беэр-Шева

АРХИВ ПОГОДЫ в Беэр-Шева

Время (UTC), дата Ветер
(напр.,м/с)
 
Видим.   Явления Облачность Т
(С)
Тd
(С)
f
(%)
Тe
(С)
Тes
(С)
Комфортность P
(гПа)
Po
(гПа)
Тmin
(С)
Tmax
(С)
R
(мм)
R24
(мм)
S
(см)
15 18.08 0 н/о н/о +30.5 +17.8 47 1006.8 975.8
18 18.08 0 н/о н/о +25.9 +20.3 71 1008.2 976.7 +25.8 +33.4
21 18.08 0 н/о н/о +24.4 +20.9 81 1008.5 976.8
00 19.08 0 н/о н/о +23.1 +20.2 84 1008.3 976.4
03 19.08 0 н/о н/о +21.3 +18.9 86 1009.2 977.1
06 19.08 0 н/о н/о +24.5 +19.8 75 1009.6 977.9 +21.0 +25.8
09 19.08 0 н/о н/о +30.9 +12.8 33 1008.3 977.3
12 19.08 0 н/о н/о +33.8 +8.5 21 1007.5 976.7
15 19.08 0 н/о н/о +31.1 +15.3 38 1008.2 977.2
18 19.08 0 н/о н/о +26.1 +16.1 54 1010.6 979.0 +24.7 +35.0
21 19.08 0 н/о н/о +24.5 +17.6 65 1010.7 978.9
00 20.08 0 н/о н/о +22.3 +17.1 72 1010.6 978.6
03 20.08 0 н/о н/о +20.2 +15.3 73 1011.2 979.0
06 20.08 0 н/о н/о +25.0 +18.1 66 1011.8 980.1 +20.0 +26.0
09 20.08 0 н/о н/о +30.4 +16.6 43 1010.7 979.6
12 20.08 0 н/о
15 20.08 0 н/о н/о +29.8 +19.1 53 1010.6 979.4
18 20.08 0 н/о н/о +26.0 +21.2 75 1012.3 980.7 +25.1 +33.6
21 20.08 0 н/о
00 21.08 0 н/о н/о +23.4 +20.7 85 1011.6 979.7
03 21.08 0 н/о н/о +21.6 +19.0 85 1012.0 979.9
06 21.08 0 н/о н/о +25.0 +20.0 74 1012.7 981.0 +21.1 +26.0
09 21.08 0 н/о н/о +31.6 +16.3 40 1011.3 980.2
12 21.08 0 н/о н/о +34.3 +15.3 32 1009.5 978.7
15 21.08 0 н/о н/о +31.5 +16.0 39 1009.3 978.3
18 21.08 0 н/о н/о +26.1 +17.4 59 1011.1 979.5 +25.3 +34.7
21 21.08 0 н/о н/о +23.5 +18.3 73 1011.5 979.6
00 22.08 0 н/о н/о +23.1 +18.3 74 1010.4 978.5
03 22.08 0 н/о
06 22.08 0 н/о н/о +26.3 +19.1 65 1010.5 979.0 +21.5 +26.5
09 22.08 0 н/о н/о +32.6 +16.8 39 1008.5 977.6
12 22.08 0 н/о н/о +34.7 +18.3 38 1007.2 976.5
15 22.08 0 н/о н/о +31.6 +18.5 46 1006.9 976.0
18 22.08 0 н/о н/о +26.6 +19.3 64 1008.8 977.3 +26.5 +35.8
21 22.08 0 н/о н/о +24.8 +20.2 76 1009.0 977.4
00 23.08 0 н/о н/о +24.0 +20.5 81 1008.4 976.7
03 23.08 0 н/о н/о +23.9 +21.1 84 1008.2 976.5
06 23.08 0 н/о н/о +27.0 +19.8 65 1008.4 977.0 +23.7 +27.0
09 23.08 0 н/о н/о +32.8 +18.1 42 1006.9 976.1
12 23.08 0 н/о н/о +34.6 +19.5 41 1005.5 974.9
15 23.08 0 н/о н/о +31.5 +20.8 53 1005.9 975.0
18 23.08 0 н/о н/о +26.6 +22.5 78 1008.4 976.9 +26.6 +35.3
21 23.08 0 н/о н/о +25.8 +23.1 85 1008.2 976.6
00 24.08 0 н/о н/о +25.1 +23.0 88 1008.0 976.4
03 24.08 0 н/о
06 24.08 0 н/о н/о +26.9 +22.0 75 1009.4 977.9 +24.7 +27.2
09 24.08 0 н/о н/о +32.4 +20.0 48 1008.2 977.3
12 24.08 0 н/о
15 24.08 0 н/о н/о +32.4 +19.5 47 1007.9 977.0
18 24.08 0 н/о н/о +27.0 +21.8 73 1009.9 978.4 +26.9 +35.9
21 24.08 0 н/о н/о +25.5 +22.0 81 1010.2 978.5
00 25.08 0 н/о н/о +24.2 +21.8 86 1009.3 977.6
03 25.08 0 н/о н/о +23.6 +21.8 90 1009.7 977.9
06 25.08 0 н/о н/о +26.2 +21.7 76 1010.6 979.0 +23.4 +27.0
09 25.08 0 н/о н/о +33.2 +17.5 39 1009.1 978.3
12 25.08 0 н/о

 

Местоположение метеостанции Беэр-Шева (Израиль): широта 31.25 долгота 34.80 высота над уровнем моря 280 м.

В архиве по умолчанию представлена погода в Беэр-Шева за последнюю неделю. Архивные данные за месяц целиком и за предыдущие месяцы, начиная с января 2011 года, Вы можете получить, выбрав интересующий диапазон дат из раскрывающегося списка и нажав кнопку "Ввод!".


*Определитесь, кто Вы:
робот инопланетянин человек

Внимание! Время в таблицах - всемирное. Для получения местного времени необходимо прибавить поправку, которая равна 2 ч.

Смотрите также архив погоды в соседних городах и на ближайших метеорологических станциях:

Погода в Ашкелон порту (Израиль) (51 км)
Погода в Седоме (Израиль) (61 км)
Погода в Гавр-эс-Сафи (Иордания) (68 км)
Погода в Иерусалиме (Израиль) (70 км)
Погода в Израильском мет сервисе (Израиль) (83 км)
Погода в Тель-Авиве (Израиль) (95 км)
Погода в Эль-Арише (Египет) (95 км)
Погода в Аэропорту Королева Алия (Иордания) (124 км)
Погода в Неот-Смадаре (Израиль) (135 км)
Погода в Хадера порту (Израиль) (136 км)

Пояснения к столбцам:

Ветер - указаны скорость ветра в м/с - средняя за 10 мин, порывы в срок и между сроками (в фигурных скобках) и направление, откуда дует ветер: С - северный, СВ - северо-восточный, В - восточный, ЮВ - юго-восточный, Ю - южный, ЮЗ - юго-западный, З - западный, СЗ - северо-западный.
Видимость - горизонтальная дальность видимости в метрах или километрах. При видимости от 1 до 10 км при отсутствии осадков обычно наблюдается дымка, при ухудшении видимости до 1 км и менее - туман. В сухую погоду видимость может ухудшаться дымом, пылью или мглою.
Явления - указаны атмосферные явления, наблюдавшиеся в срок или в последний час перед сроком; фигурными скобками обозначены явления, наблюдавшиеся между сроками (за 1-3 часа до срока); квадратными скобками обозначены град или гололедные отложения с указанием их диаметра в мм.
Облачность - указаны через наклонную черту общая и нижняя облачность в баллах и высота нижней границы облаков в метрах; квадратными скобками обозначены формы облаков: Ci - перистые, Cs - перисто-слоистые, Cc - перисто-кучевые, Ac - высококучевые, As - высокослоистые, Sc - слоисто-кучевые, Ns - слоисто-дождевые, Cu - кучевые, Cb - кучево-дождевые. Подробнее классификацию облаков см. в Атласе облаков (PDF).
T - Температура воздуха - температура, измеренная на высоте 2 м над землей.
Td - Температура точки росы - температура, при понижении до которой содержащийся в воздухе водяной пар достигнет насыщения.
f - Относительная влажность воздуха - влажноcть воздуха, измеренная на высоте 2 м над землей.
Te - Эффективная температура - температура, которую ощущает одетый по сезону человек в тени. Характеристика душности погоды. При расчете учитывается влияние влажности воздуха и скорости ветра на теплоощущения человека.
Tes - Эффективная температура на солнце - температура, которую ощущает человек, с поправкой на солнечный нагрев. Характеристика знойности погоды. Зависит от высоты солнца над горизонтом, облачности и скорости ветра. Ночью, в пасмурную погоду, а также при ветре 12 м/с и более поправка равна нулю.
P - Атмосферное давление - приведенное к уровню моря атмосферное давление.
Po - Атмосферное давление - измеренное на уровне метеостанции атмосферное давление.
Tmin - Минимальная температура - минимум температуры воздуха на высоте 2 м над землей.
Tmax - Максимальная температура - максимум температуры воздуха на высоте 2 м над землей.
R - Количество осадков - Количество выпавших осадков за период времени, мм. При наведении курсора мыши на число - период времени, за который выпало указанное количество осадков.
R24 - Количество осадков - Количество выпавших осадков за 24 часа, мм.
S - Снежный покров - Высота снежного покрова, см. При наведении курсора мыши на число - состояние снежного покрова и степень покрытия местности в баллах.